Location: Burera
(21.3780°N, 81.9534°E)
Time: 11:38:52
(UTC+00:00)

CZ-2C R/B - Pass Details

Date: 13 August 2020
Orbit: 668 x 784 km, 98.2° (Epoch: 21 September)

Event Time Altitude Azimuth Distance (km) Brightness Sun altitude
Rises 22:43:11 0° 3° (N) 3,031 6.0 -19.9°
Reaches altitude 10° 22:45:27 10° 358° (N) 2,126 5.1 -19.4°
Maximum altitude 22:49:55 48° 284° (WNW) 905 2.5 -18.4°
Enters shadow 22:51:34 33° 233° (SW) 1,158 2.9 -18.1°
